Time,TemperatureF,DewpointF,PressureIn,WindDirection,WindDirectionDegrees,WindSpeedMPH,WindSpeedGustMPH,Humidity,HourlyPrecipIn,Conditions,Clouds,dailyrainin,SoftwareType,DateUTC
2013-07-08 00:22:00,68.0,62.0,29.92,WNW,301,5.0,-999.0,82,-99.99,,,-99.99,,2013-07-08 05:22:00,
2013-07-08 00:43:00,67.0,63.0,29.92,NW,310,5.0,-999.0,87,-99.99,,,-99.99,,2013-07-08 05:43:00,
2013-07-08 00:53:00,67.0,63.0,29.93,NW,310,5.0,-999.0,85,-99.99,,,-99.99,,2013-07-08 05:53:00,
2013-07-08 01:11:00,67.0,63.0,29.93,NNW,328,4.0,-999.0,87,-99.99,,,-99.99,,2013-07-08 06:11:00,
2013-07-08 01:43:00,67.0,64.0,29.94,NW,318,6.0,-999.0,90,-99.99,,,-99.99,,2013-07-08 06:43:00,
2013-07-08 01:53:00,67.0,65.0,29.94,NNW,330,6.0,-999.0,93,-99.99,,,-99.99,,2013-07-08 06:53:00,
2013-07-08 02:12:00,65.0,65.0,29.93,NNW,337,3.0,-999.0,98,-99.99,,,-99.99,,2013-07-08 07:12:00,
2013-07-08 02:22:00,65.0,65.0,29.93,NNW,337,3.0,-999.0,98,-99.99,,,-99.99,,2013-07-08 07:22:00,
2013-07-08 02:44:00,66.0,64.0,29.92,NNW,341,2.0,-999.0,95,-99.99,,,-99.99,,2013-07-08 07:44:00,
2013-07-08 03:12:00,65.0,64.0,29.91,NNW,338,3.0,-999.0,97,-99.99,,,-99.99,,2013-07-08 08:12:00,
2013-07-08 03:22:00,65.0,64.0,29.91,NNW,338,3.0,-999.0,97,-99.99,,,-99.99,,2013-07-08 08:22:00,
2013-07-08 03:42:00,64.0,64.0,29.92,WNW,292,3.0,-999.0,97,-99.99,,,-99.99,,2013-07-08 08:42:00,
2013-07-08 03:53:00,64.0,-99.9,29.93,WNW,292,5.0,-999.0,-999,-99.99,,,-99.99,,2013-07-08 08:53:00,
2013-07-08 04:11:00,64.0,-99.9,29.93,WNW,302,4.0,-999.0,-999,-99.99,,,-99.99,,2013-07-08 09:11:00,
2013-07-08 05:11:00,63.0,62.0,29.92,NNW,327,6.0,-999.0,97,-99.99,,,-99.99,,2013-07-08 10:11:00,
2013-07-08 05:22:00,63.0,62.0,29.92,NNW,327,6.0,-999.0,97,-99.99,,,-99.99,,2013-07-08 10:22:00,
2013-07-08 05:43:00,63.0,-99.9,29.91,NNW,345,5.0,-999.0,-999,-99.99,,,-99.99,,2013-07-08 10:43:00,
2013-07-08 05:53:00,64.0,-99.9,29.92,NNW,345,4.0,-999.0,-999,-99.99,,,-99.99,,2013-07-08 10:53:00,
2013-07-08 06:11:00,63.0,-99.9,29.91,NNW,344,3.0,-999.0,-999,-99.99,,,-99.99,,2013-07-08 11:11:00,
2013-07-08 06:33:00,63.0,-99.9,29.92,NNW,345,5.0,-999.0,-999,-99.99,,,-99.99,,2013-07-08 11:33:00,
2013-07-08 06:43:00,62.0,-99.9,29.92,NNW,345,6.0,-999.0,-999,-99.99,,,-99.99,,2013-07-08 11:43:00,
2013-07-08 07:11:00,64.0,64.0,29.92,NNW,345,4.0,-999.0,97,-99.99,,,-99.99,,2013-07-08 12:11:00,
2013-07-08 09:12:00,71.0,61.0,29.96,NE,51,6.0,-999.0,70,-99.99,,,-99.99,,2013-07-08 14:12:00,
2013-07-08 09:22:00,71.0,61.0,29.96,NE,51,6.0,-999.0,70,-99.99,,,-99.99,,2013-07-08 14:22:00,
2013-07-08 09:43:00,73.0,61.0,29.96,SE,126,6.0,-999.0,65,-99.99,,,-99.99,,2013-07-08 14:43:00,
2013-07-08 09:53:00,73.0,61.0,29.96,SE,126,6.0,-999.0,65,-99.99,,,-99.99,,2013-07-08 14:53:00,
2013-07-08 10:22:00,76.0,62.0,29.95,ESE,106,4.0,-999.0,61,-99.99,,,-99.99,,2013-07-08 15:22:00,
2013-07-08 10:43:00,78.0,60.0,29.95,ESE,111,3.0,-999.0,55,-99.99,,,-99.99,,2013-07-08 15:43:00,
2013-07-08 10:53:00,77.0,61.0,29.95,ENE,69,6.0,-999.0,57,-99.99,,,-99.99,,2013-07-08 15:53:00,
2013-07-08 11:43:00,78.0,60.0,29.95,SE,128,9.0,-999.0,55,-99.99,,,-99.99,,2013-07-08 16:43:00,
2013-07-08 12:26:00,77.0,61.0,29.94,SE,132,10.0,-999.0,59,-99.99,,,-99.99,,2013-07-08 17:26:00,
2013-07-08 13:20:00,80.0,61.0,29.93,SE,140,9.0,-999.0,52,-99.99,,,-99.99,,2013-07-08 18:20:00,
2013-07-08 13:48:00,81.0,61.0,29.93,ESE,114,6.0,-999.0,51,-99.99,,,-99.99,,2013-07-08 18:48:00,
2013-07-08 14:30:00,82.0,59.0,29.93,SSE,167,8.0,-999.0,45,-99.99,,,-99.99,,2013-07-08 19:30:00,
2013-07-08 17:12:00,84.0,60.0,29.90,South,175,11.0,-999.0,45,-99.99,,,-99.99,,2013-07-08 22:12:00,
2013-07-08 17:57:00,83.0,62.0,29.89,SSE,154,8.0,-999.0,49,-99.99,,,-99.99,,2013-07-08 22:57:00,
2013-07-08 18:18:00,83.0,63.0,29.88,SSE,152,4.0,-999.0,51,-99.99,,,-99.99,,2013-07-08 23:18:00,
2013-07-08 18:30:00,83.0,63.0,29.88,SSE,152,4.0,-999.0,51,-99.99,,,-99.99,,2013-07-08 23:30:00,
2013-07-08 18:50:00,83.0,62.0,29.87,SE,142,10.0,-999.0,50,-99.99,,,-99.99,,2013-07-08 23:50:00,
2013-07-08 18:58:00,83.0,63.0,29.87,SE,133,8.0,-999.0,51,-99.99,,,-99.99,,2013-07-08 23:58:00,
2013-07-08 19:19:00,83.0,64.0,29.86,SE,145,7.0,-999.0,52,-99.99,,,-99.99,,2013-07-09 00:19:00,
2013-07-08 19:41:00,83.0,64.0,29.87,SSE,158,7.0,-999.0,52,-99.99,,,-99.99,,2013-07-09 00:41:00,
2013-07-08 19:58:00,84.0,64.0,-100.00,SE,146,11.0,-999.0,51,-99.99,,,-99.99,,2013-07-09 00:58:00,
2013-07-08 20:19:00,83.0,65.0,-100.00,SE,127,8.0,-999.0,54,-99.99,,,-99.99,,2013-07-09 01:19:00,
2013-07-08 20:51:00,81.0,65.0,-100.00,ESE,109,7.0,-999.0,58,-99.99,,,-99.99,,2013-07-09 01:51:00,
2013-07-08 20:59:00,81.0,65.0,-100.00,ESE,115,8.0,-999.0,59,-99.99,,,-99.99,,2013-07-09 01:59:00,
2013-07-08 21:42:00,79.0,65.0,29.84,East,79,5.0,-999.0,64,-99.99,,,-99.99,,2013-07-09 02:42:00,
2013-07-08 21:51:00,78.0,65.0,29.84,ESE,109,4.0,-999.0,64,-99.99,,,-99.99,,2013-07-09 02:51:00,
2013-07-08 21:59:00,78.0,65.0,29.84,East,97,5.0,-999.0,64,-99.99,,,-99.99,,2013-07-09 02:59:00,
2013-07-08 22:20:00,77.0,65.0,29.86,East,91,6.0,-999.0,66,-99.99,,,-99.99,,2013-07-09 03:20:00,
2013-07-08 23:02:00,76.0,66.0,29.88,ESE,111,4.0,-999.0,71,-99.99,,,-99.99,,2013-07-09 04:02:00,
2013-07-08 23:11:00,76.0,66.0,29.87,SE,127,6.0,-999.0,71,-99.99,,,-99.99,,2013-07-09 04:11:00,
2013-07-08 23:34:00,76.0,65.0,29.86,SE,125,8.0,-999.0,70,-99.99,,,-99.99,,2013-07-09 04:34:00,
2013-07-08 23:42:00,76.0,65.0,29.86,SE,129,7.0,-999.0,71,-99.99,,,-99.99,,2013-07-09 04:42:00,